C/2020 H2 ( Pruyne )

Japanese version
Home page
Updated on August 15, 2020

---------------------------------------------------------------------

* Profile

Discovery Date April 26, 2020
Magnitude 16.2 mag
Discoverer Theodore A. Pruyne (Catalina Sky Survey)

* Pictures

* Orbital Elements

Epoch 2020 Apr. 21.0 TT = JDT 2458960.5
T 2020 Apr. 27.58832 TT                                 Rudenko
q   0.8336116            (2000.0)            P               Q
z  +0.0054687      Peri.   26.68975     -0.13693798     -0.56815303
 +/-0.0001203      Node   277.63395     -0.99016988     +0.05495020
e   0.9954413      Incl.  125.04457     -0.02848872     +0.82108624
From 117 observations 2020 Apr. 26-June 8, mean residual 0".7.

* Finding Charts

* Magnitudes Graph

        m1 = 15.5 + 5 log d + 20.0 log r

---------------------------------------------------------------------

The orbital elements are published on M.P.E.C. 2020-O07.
The charts are made with StellaNavigator Ver.10 (AstroArts).
The magnitudes graphs are made with Comet for Windows.

---------------------------------------------------------------------

Copyright(C) Seiichi Yoshida (comet@aerith.net). All rights reserved.